Regional Weather Roundup
Issued by NWS

Home | Current Version | Previous Version | Text Only | Print | Product List | Glossary On
Versions: 1 2 3 4 5 6 7 8 9 10 11 12 13 14 15 16 17 18 19 20 21 22 23 24 25 26 27 28 29 30 31 32 33 34 35 36 37 38 39 40 41 42 43 44 45 46 47 48 49 50
918
ASUS44 KMEG 221710
RWRTN
TENNESSEE HOURLY STATE WEATHER ROUNDUP
NATIONAL WEATHER SERVICE MEMPHIS TN
1200 PM CDT FRI MAY 22 2015

TNZ002-004-019-021-049-052-054-088>092-221800-
WEST TENNESSEE

CITY           SKY/WX    TMP DP  RH WIND       PRES   REMARKS
MEMPHIS INTL   MOSUNNY   68  46  45 E8        30.30R
NWS MEMPHIS      N/A     67 N/A N/A MISG        N/A
JACKSON        SUNNY     67  46  47 NE6       30.29F
DYERSBURG      SUNNY     66  37  34 CALM      30.31S
PARIS          SUNNY     66  41  39 VRB5      30.30S
LEXINGTON      SUNNY     66  45  45 VRB3      30.28S
$$

TNZ008-025-027-028-033-062-065-066-221800-
NORTH MIDDLE TENNESSEE

CITY           SKY/WX    TMP DP  RH WIND       PRES   REMARKS
NASHVILLE      PTSUNNY   68  44  42 E5        30.29F
CLARKSVILLE    SUNNY     66  43  43 CALM      30.29F
SMYRNA         SUNNY     69  45  42 E8        30.29F
COOKEVILLE     SUNNY     66  46  48 CALM      30.27F
CROSSVILLE     SUNNY     62  40  44 NE10      30.29F
$$

TNZ061-075-076-078-094-096-097-221800-
SOUTH MIDDLE TENNESSEE

CITY           SKY/WX    TMP DP  RH WIND       PRES   REMARKS
FAYETTEVILLE   SUNNY    N/A N/A N/A MISG      30.27F
TULLAHOMA      SUNNY     64  39  39 NE8       30.28F
WINCHESTER     SUNNY     66  46  48 N7        30.26F
MCMINNVILLE    SUNNY     64  46  52 VRB7      30.28F
COLUMBIA       SUNNY     66  45  45 NE5       30.27F
SHELBYVILLE    SUNNY     66  48  52 VRB6      30.28F
$$

TNZ017-018-042-046-047-221800-
NORTHEAST TENNESSEE

CITY           SKY/WX    TMP DP  RH WIND       PRES   REMARKS
TRI CITIES     SUNNY     64  41  42 NE6       30.28F
ELIZABETHTON   SUNNY     63  39  42 NW8       30.27F
$$

TNZ012-013-036-069-073-074-221800-
CENTRAL EAST TENNESSEE

CITY           SKY/WX    TMP DP  RH WIND       PRES   REMARKS
KNOXVILLE      MOSUNNY   65  43  44 N10       30.27F
OAK RIDGE      SUNNY     68  41  37 NE9       30.29F
GATLINBURG     SUNNY     64  39  39 N8        30.28F
MORRISTOWN     SUNNY     64  41  42 SE6       30.29F
$$

TNZ083-085-099-221800-
SOUTHEAST TENNESSEE

CITY           SKY/WX    TMP DP  RH WIND       PRES   REMARKS
CHATTANOOGA    MOSUNNY   67  45  45 N8G23     30.26F
$$

SKY/WX REPORTED AS FAIR MEANS FEW OR NO CLOUDS BELOW
12 THOUSAND FEET.




USA.gov is the U.S. government's official web portal to all federal, state and local government web resources and services.